Weather History for Hyannis, MA

Change the Weather History Date:

Thursday, February 28, 2013

  Actual Average Record
Temperature  
Mean Temperature 40 °F -  
Max Temperature 44 °F 40 °F 64 °F (1976)
Min Temperature 37 °F 24 °F 0 °F (1934)
Degree Days  
Heating Degree Days 24    
Moisture  
Dew Point 38 °F    
Average Humidity 92    
Maximum Humidity 100    
Minimum Humidity 79    
Precipitation  
Precipitation 0.00 in - - ()
Sea Level Pressure  
Sea Level Pressure 29.57 in    
Wind  
Wind Speed 7 mph (West)    
Max Wind Speed 16 mph    
Max Gust Speed -    
Visibility 8 miles    
Events Rain    
Averages and records for this station are not official NWS values.
T = Trace of Precipitation, MM = Missing Value Source: NWS Daily Summary

Daily Weather History Graph

Daily Weather History Graph

Search for Another Location

Airport:

Trip Planner

Search our weather history database for the weather conditions in past years. The results will help you decide how hot, cold, wet, or windy it might be!

Date:

Astronomy

Feb. 28, 2013 Rise Set
Actual Time 6:17 AM EST 5:30 PM EST
Civil Twilight 5:49 AM EST 5:58 PM EST
Nautical Twilight 5:17 AM EST 6:30 PM EST
Astronomical Twilight 4:44 AM EST 7:02 PM EST
Moon 8:57 PM EST (2/28) 7:21 AM EST (2/28)
Length of Visible Light 12h 09m
Length of Day
11h 13m
Waning Gibbous, 91% of the Moon is Illuminated
Feb 28
Waning Gibbous
Mar 4
Last Quarter
Mar 11
New
Mar 19
First Quarter
Mar 27
Full

Hourly Weather History & Observations

Time (EST) Temp. Windchill Dew Point Humidity Pressure Visibility Wind Dir Wind Speed Gust Speed Precip Events Conditions
12:12 AM 42.8 °F 35.1 °F 42.8 °F 100% 29.56 in 3.0 mi SW 16.1 mph - N/A   Overcast
1:22 AM 41.0 °F 35.8 °F 41.0 °F 100% 29.57 in 2.5 mi SSW 8.1 mph - N/A   Overcast
1:39 AM 41.0 °F 35.2 °F 41.0 °F 100% 29.57 in 1.5 mi SW 9.2 mph - N/A   Overcast
1:56 AM 41.0 °F 34.7 °F 41.0 °F 100% 29.58 in 1.2 mi SW 10.4 mph - N/A   Overcast
2:56 AM 39.9 °F 36.7 °F 39.9 °F 100% 29.58 in 1.0 mi South 4.6 mph - N/A   Mist
3:05 AM 39.2 °F 35.9 °F 39.2 °F 100% 29.57 in 0.8 mi SSW 4.6 mph - N/A   Mist
3:34 AM 39.2 °F 34.2 °F 39.2 °F 100% 29.59 in 2.0 mi SW 6.9 mph - N/A   Overcast
3:44 AM 39.2 °F 34.2 °F 39.2 °F 100% 29.58 in 4.0 mi WSW 6.9 mph - N/A   Overcast
3:56 AM 41.0 °F 35.8 °F 39.9 °F 96% 29.58 in 10.0 mi WSW 8.1 mph - N/A   Overcast
4:09 AM 41.0 °F 37.1 °F 39.2 °F 93% 29.58 in 10.0 mi West 5.8 mph - N/A   Overcast
4:56 AM 39.9 °F 32.9 °F 39.0 °F 97% 29.60 in 10.0 mi SW 11.5 mph - N/A   Overcast
5:56 AM 39.0 °F 35.7 °F 37.9 °F 96% 29.61 in 10.0 mi SSW 4.6 mph - N/A   Overcast
6:16 AM 39.2 °F 33.6 °F 37.4 °F 93% 29.61 in 10.0 mi WSW 8.1 mph - N/A   Overcast
6:42 AM 37.4 °F 34.9 °F 35.6 °F 93% 29.61 in 10.0 mi SW 3.5 mph - N/A   Scattered Clouds
6:56 AM 39.0 °F - 37.0 °F 93% 29.60 in 10.0 mi Calm Calm - N/A   Clear
7:39 AM 41.0 °F 37.1 °F 37.4 °F 87% 29.61 in 10.0 mi West 5.8 mph - N/A   Mostly Cloudy
7:56 AM 41.0 °F 38.0 °F 37.9 °F 89% 29.62 in 10.0 mi WSW 4.6 mph - N/A   Mostly Cloudy
8:56 AM 41.0 °F 38.0 °F 39.0 °F 93% 29.64 in 10.0 mi West 4.6 mph - N/A   Mostly Cloudy
9:45 AM 42.8 °F - 37.4 °F 81% 29.62 in 10.0 mi Calm Calm - N/A   Overcast
9:56 AM 42.1 °F 38.4 °F 37.0 °F 82% 29.61 in 10.0 mi NNW 5.8 mph - N/A   Overcast
10:52 AM 42.8 °F 41.1 °F 37.4 °F 81% 29.60 in 10.0 mi Variable 3.5 mph - N/A   Overcast
10:56 AM 42.1 °F 38.4 °F 39.0 °F 89% 29.61 in 10.0 mi North 5.8 mph - N/A   Overcast
11:56 AM 44.1 °F - 39.0 °F 82% 29.60 in 10.0 mi Calm Calm - N/A   Overcast
12:41 PM 44.6 °F 43.1 °F 39.2 °F 81% 29.57 in 10.0 mi NNE 3.5 mph - 0.00 in Rain Light Rain
12:56 PM 43.0 °F 39.5 °F 39.0 °F 86% 29.57 in 10.0 mi NNE 5.8 mph - 0.00 in Rain Light Rain
1:56 PM 42.1 °F 38.4 °F 37.9 °F 85% 29.54 in 10.0 mi North 5.8 mph - 0.00 in   Overcast
2:56 PM 44.1 °F 40.8 °F 37.9 °F 79% 29.53 in 10.0 mi North 5.8 mph - N/A   Partly Cloudy
3:56 PM 41.0 °F 35.8 °F 36.0 °F 82% 29.52 in 10.0 mi North 8.1 mph - N/A   Clear
4:56 PM 39.9 °F 37.8 °F 37.0 °F 89% 29.53 in 10.0 mi NNW 3.5 mph - N/A   Mostly Cloudy
5:56 PM 39.0 °F 36.8 °F 36.0 °F 89% 29.53 in 10.0 mi North 3.5 mph - N/A   Overcast
6:56 PM 39.9 °F - 37.0 °F 89% 29.53 in 10.0 mi Calm Calm - N/A   Overcast
7:56 PM 39.0 °F 36.8 °F 37.0 °F 93% 29.52 in 10.0 mi ENE 3.5 mph - 0.00 in Rain Light Rain
7:59 PM 39.2 °F - 37.4 °F 93% 29.52 in 10.0 mi Calm Calm - 0.00 in Rain Light Rain
8:56 PM 39.0 °F - 37.0 °F 93% 29.52 in 10.0 mi Calm Calm - 0.00 in Rain Light Rain
9:56 PM 37.9 °F - 37.0 °F 97% 29.51 in 7.0 mi Calm Calm - 0.00 in   Overcast
10:56 PM 37.0 °F 34.5 °F 36.0 °F 96% 29.50 in 5.0 mi West 3.5 mph - N/A   Overcast
11:17 PM 37.4 °F - 37.4 °F 100% 29.49 in 6.0 mi Calm Calm - N/A   Mostly Cloudy
11:41 PM 37.4 °F 34.9 °F 37.4 °F 100% 29.49 in 6.0 mi WNW 3.5 mph - N/A   Overcast
11:56 PM 37.9 °F 35.5 °F 37.0 °F 97% 29.49 in 10.0 mi WNW 3.5 mph - N/A   Overcast